Home > Weather > Algiers > Past weeks

Flag for Algeria Weather for the Past 2 Weeks in Algiers, Algeria

Now
43 °F

Passing clouds.


Feels Like: 43 °F
Forecast: 56 / 70 °F
Wind: 2 mph from South

Location: Dar-El-Beida

Current Time: May 3, 2016 at 3:02:11 AM

Latest Report: May 3, 2016 at 2:00 AM


Visibility: N/A

Pressure: 30.21 "Hg

Humidity: 93%

Dew Point: 41 °F

Location of AlgiersLocation

Historic Weather in Algiers — Graph

°F

Algiers Temperature Yesterday

Maximum temperature yesterday: 68 °F (at 4:00 PM)
Minimum temperature yesterday: 39 °F (at 4:30 AM)
Average temperature yesterday: 55 °F

High & Low Weather Summary for the Past Weeks

 TemperatureHumidityPressure
High77 °F (Apr 27, 1:30 PM)100% (Apr 21, 11:30 PM)30.27 "Hg (Apr 21, 11:30 PM)
Low39 °F (May 2, 4:30 AM)32% (May 2, 4:30 PM)29.80 "Hg (Apr 20, 2:30 AM)
Average62 °F78%30.03 "Hg
* Reported Apr 18 1:00 AM — May 3 1:30 AM, Algiers, Weather by CustomWeather, © 2016

Note: Actual official high and low records may vary slightly from our data, if they occured in-between our weather recording intervals... More about our weather records

Advertising

Algiers Weather History for the Previous 24 Hours

Scroll right to see more
 ConditionsComfort  
Time TempWeatherWind HumidityBarometerVisibility
1:30 AM
Tue, May 3
45 °FPassing clouds.No wind93%30.21 "HgN/A
1:00 AM45 °FPassing clouds.No wind93%30.24 "HgN/A
12:30 AM45 °FPassing clouds.No wind93%30.24 "HgN/A
12:00 AM46 °FPassing clouds.2 mph87%30.24 "HgN/A
11:30 PM
Mon, May 2
48 °FPassing clouds.1 mph87%30.24 "HgN/A
11:00 PM48 °FPassing clouds.1 mph94%30.24 "HgN/A
10:00 PM50 °FPassing clouds.5 mph88%30.24 "HgN/A
9:30 PM52 °FPassing clouds.5 mph82%30.21 "HgN/A
9:00 PM55 °FPassing clouds.5 mph72%30.21 "HgN/A
8:30 PM57 °FPassing clouds.6 mph67%30.21 "HgN/A
8:00 PM57 °FPassing clouds.5 mph67%30.18 "HgN/A
7:30 PM59 °FPassing clouds.7 mph63%30.18 "HgN/A
7:00 PM63 °FPassing clouds.7 mph52%30.18 "HgN/A
6:30 PM64 °FPassing clouds.8 mph49%30.18 "HgN/A
6:00 PM66 °FPassing clouds.10 mph46%30.18 "HgN/A
5:30 PM66 °FPassing clouds.12 mph40%30.18 "HgN/A
5:00 PM66 °FPassing clouds.13 mph35%30.15 "HgN/A
4:30 PM66 °FPassing clouds.10 mph32%30.15 "HgN/A
4:00 PM68 °FPassing clouds.12 mph38%30.18 "HgN/A
3:30 PM66 °FPassing clouds.13 mph43%30.18 "HgN/A
3:00 PM66 °FPassing clouds.13 mph40%30.18 "HgN/A
2:30 PM66 °FPassing clouds.13 mph40%30.18 "HgN/A
2:00 PM66 °FPassing clouds.10 mph37%30.18 "HgN/A
1:30 PM66 °FPassing clouds.10 mph40%30.21 "HgN/A
1:00 PM64 °FPassing clouds.12 mph43%30.21 "HgN/A
12:30 PM64 °FPassing clouds.10 mph49%30.21 "HgN/A
12:00 PM64 °FPassing clouds.9 mph52%30.21 "HgN/A
11:30 AM64 °FPassing clouds.9 mph46%30.21 "HgN/A
11:00 AM64 °FPassing clouds.7 mph40%30.21 "HgN/A
10:30 AM63 °FPassing clouds.2 mph45%30.21 "HgN/A
10:00 AM61 °FPassing clouds.3 mph52%30.21 "HgN/A
9:30 AM61 °FPassing clouds.2 mph52%30.21 "HgN/A
9:00 AM57 °FPassing clouds.2 mph63%30.21 "HgN/A
8:30 AM54 °FPassing clouds.2 mph77%30.21 "HgN/A
8:00 AM50 °FPassing clouds.No wind82%30.21 "HgN/A
7:30 AM48 °FPassing clouds.1 mph82%30.21 "HgN/A
7:00 AM45 °FPassing clouds.No wind93%30.21 "HgN/A
6:00 AM39 °FPassing clouds.3 mph93%30.21 "HgN/A
5:30 AM39 °FClear.2 mph93%30.21 "Hg10 mi
5:00 AM39 °FClear.5 mph93%30.21 "Hg10 mi
4:30 AM39 °FClear.1 mph93%30.21 "Hg10 mi
4:00 AM41 °FClear.3 mph93%30.21 "Hg10 mi
3:00 AM41 °FClear.No wind93%30.21 "Hg10 mi
Weather by CustomWeather, © 2016

See weather overviewHow to use our weather pages